When you browse on this site, cookies collect data to enhance your experience and personalize the content and advertising you see.
Visit our Privacy Policy to learn more. By continuing to use the site, you agree to this use of cookies and data.
  • în România
  • Lista ţărilor
  • Pe 7 zile
  • Temperatura apei
  • Meteo pe hartă
  • Widget-uri
  • user-avatar
    Intrare

    Meteo pe oră la Newcastle

    Astăzi, 22 Octombrie, Marţi

    Timp Temperatura Precipitaţii Vânt Presiune Umiditate
    00:00 +12°C° 0 mm 1 m/s 768 mmHg 85%
    01:00 +12°C° 0 mm 1 m/s 768 mmHg 88%
    02:00 +12°C° 0 mm 1 m/s 768 mmHg 89%
    03:00 +11°C° 0 mm 1 m/s 768 mmHg 90%
    04:00 +11°C° 0 mm 1 m/s 768 mmHg 91%
    05:00 +13°C° 0 mm 1 m/s 768 mmHg 84%
    06:00 +14°C° 0 mm 1 m/s 768 mmHg 76%
    07:00 +16°C° 0 mm 1 m/s 768 mmHg 68%
    08:00 +20°C° 0 mm 1 m/s 768 mmHg 59%
    09:00 +23°C° 0 mm 1 m/s 768 mmHg 49%
    10:00 +27°C° 0 mm 1 m/s 768 mmHg 41%
    11:00 +27°C° 0 mm 2 m/s 767 mmHg 40%
    12:00 +27°C° 0 mm 2 m/s 766 mmHg 40%
    13:00 +27°C° 0 mm 3 m/s 765 mmHg 40%
    14:00 +26°C° 0 mm 4 m/s 765 mmHg 43%
    15:00 +25°C° 0 mm 4 m/s 765 mmHg 47%
    16:00 +25°C° 0 mm 4 m/s 765 mmHg 51%
    17:00 +21°C° 0 mm 4 m/s 765 mmHg 62%
    18:00 +19°C° 0 mm 4 m/s 766 mmHg 72%
    19:00 +17°C° 0 mm 4 m/s 766 mmHg 82%
    20:00 +15°C° 0 mm 4 m/s 767 mmHg 86%
    21:00 +15°C° 0 mm 4 m/s 767 mmHg 89%
    22:00 +14°C° 0 mm 3 m/s 768 mmHg 92%
    23:00 +14°C° 0 mm 3 m/s 767 mmHg 93%

    Mâine, 23 Octombrie, Miercuri

    Timp Temperatura Precipitaţii Vânt Presiune Umiditate
    00:00 +13°C° 0 mm 3 m/s 767 mmHg 94%
    01:00 +14°C° 0 mm 2 m/s 767 mmHg 95%
    02:00 +13°C° 0 mm 2 m/s 767 mmHg 95%
    03:00 +13°C° 0 mm 2 m/s 767 mmHg 95%
    04:00 +13°C° 0 mm 2 m/s 766 mmHg 96%
    05:00 +14°C° 0 mm 2 m/s 767 mmHg 92%
    06:00 +15°C° 0 mm 2 m/s 767 mmHg 87%
    07:00 +16°C° 0 mm 2 m/s 767 mmHg 83%
    08:00 +19°C° 0 mm 2 m/s 767 mmHg 70%
    09:00 +23°C° 0 mm 2 m/s 767 mmHg 58%
    10:00 +27°C° 0 mm 2 m/s 766 mmHg 45%
    11:00 +28°C° 0 mm 3 m/s 765 mmHg 42%
    12:00 +29°C° 0 mm 4 m/s 765 mmHg 39%
    13:00 +30°C° 0 mm 4 m/s 764 mmHg 37%
    14:00 +30°C° 0 mm 5 m/s 763 mmHg 38%
    15:00 +30°C° 0 mm 5 m/s 763 mmHg 40%
    16:00 +29°C° 0 mm 5 m/s 763 mmHg 41%
    17:00 +27°C° 0 mm 5 m/s 763 mmHg 52%
    18:00 +23°C° 0 mm 4 m/s 763 mmHg 63%
    19:00 +20°C° 0 mm 4 m/s 763 mmHg 74%
    20:00 +20°C° 0 mm 3 m/s 764 mmHg 75%
    21:00 +19°C° 0 mm 3 m/s 764 mmHg 77%
    22:00 +19°C° 0 mm 2 m/s 764 mmHg 79%
    23:00 +18°C° 0 mm 2 m/s 763 mmHg 78%

    Poimâine, 24 Octombrie, Joi

    Timp Temperatura Precipitaţii Vânt Presiune Umiditate
    00:00 +18°C° 0 mm 2 m/s 763 mmHg 78%
    01:00 +17°C° 0 mm 2 m/s 762 mmHg 78%
    02:00 +17°C° 0 mm 2 m/s 762 mmHg 75%
    03:00 +17°C° 0 mm 2 m/s 762 mmHg 73%
    04:00 +16°C° 0 mm 2 m/s 762 mmHg 70%
    05:00 +18°C° 0 mm 2 m/s 763 mmHg 65%
    06:00 +19°C° 0 mm 2 m/s 763 mmHg 59%
    07:00 +20°C° 0 mm 2 m/s 763 mmHg 53%
    08:00 +24°C° 0 mm 2 m/s 763 mmHg 47%
    09:00 +27°C° 0 mm 2 m/s 763 mmHg 40%
    10:00 +30°C° 0 mm 2 m/s 763 mmHg 33%
    11:00 +31°C° 0 mm 2 m/s 762 mmHg 31%
    12:00 +32°C° 0 mm 2 m/s 762 mmHg 28%
    13:00 +34°C° 0 mm 3 m/s 761 mmHg 26%
    14:00 +31°C° 0 mm 3 m/s 761 mmHg 33%
    15:00 +29°C° 0 mm 3 m/s 761 mmHg 40%
    16:00 +27°C° 0 mm 3 m/s 760 mmHg 47%
    17:00 +26°C° 0 mm 3 m/s 761 mmHg 50%
    18:00 +24°C° 0 mm 2 m/s 761 mmHg 54%
    19:00 +23°C° 0 mm 2 m/s 762 mmHg 58%
    20:00 +23°C° 0 mm 2 m/s 762 mmHg 58%
    21:00 +23°C° 0 mm 2 m/s 762 mmHg 57%
    22:00 +21°C° 0 mm 2 m/s 762 mmHg 57%
    23:00 +20°C° 0 mm 2 m/s 761 mmHg 60%

    25 Octombrie, Vineri

    Timp Temperatura Precipitaţii Vânt Presiune Umiditate
    00:00 +19°C° 0 mm 3 m/s 761 mmHg 64%
    01:00 +18°C° 0 mm 3 m/s 760 mmHg 67%
    02:00 +18°C° 0 mm 3 m/s 760 mmHg 66%
    03:00 +18°C° 0 mm 3 m/s 760 mmHg 64%
    04:00 +18°C° 0 mm 4 m/s 760 mmHg 62%
    05:00 +19°C° 0 mm 4 m/s 760 mmHg 59%
    06:00 +21°C° 0 mm 4 m/s 760 mmHg 55%
    07:00 +22°C° 0 mm 4 m/s 760 mmHg 51%
    08:00 +26°C° 0 mm 4 m/s 760 mmHg 44%
    09:00 +28°C° 0 mm 4 m/s 759 mmHg 38%
    10:00 +32°C° 0 mm 5 m/s 759 mmHg 31%
    11:00 +33°C° 0 mm 5 m/s 759 mmHg 28%
    12:00 +34°C° 0 mm 5 m/s 758 mmHg 26%
    13:00 +35°C° 0 mm 5 m/s 757 mmHg 24%
    14:00 +35°C° 0 mm 5 m/s 757 mmHg 25%
    15:00 +34°C° 0 mm 6 m/s 756 mmHg 27%
    16:00 +34°C° 0 mm 6 m/s 756 mmHg 28%
    17:00 +32°C° 0 mm 6 m/s 756 mmHg 32%
    18:00 +29°C° 0 mm 6 m/s 756 mmHg 35%
    19:00 +26°C° 0 mm 5 m/s 756 mmHg 39%
    20:00 +25°C° 0 mm 5 m/s 756 mmHg 43%
    21:00 +23°C° 0 mm 4 m/s 756 mmHg 46%
    22:00 +22°C° 0 mm 4 m/s 756 mmHg 50%
    23:00 +21°C° 0 mm 4 m/s 755 mmHg 50%

    26 Octombrie, Sâmbătă

    Timp Temperatura Precipitaţii Vânt Presiune Umiditate
    00:00 +20°C° 0 mm 3 m/s 755 mmHg 50%
    01:00 +20°C° 0 mm 3 m/s 754 mmHg 49%
    02:00 +20°C° 0 mm 3 m/s 754 mmHg 49%
    03:00 +20°C° 0 mm 3 m/s 754 mmHg 48%
    04:00 +20°C° 0 mm 4 m/s 753 mmHg 47%
    05:00 +21°C° 0 mm 4 m/s 753 mmHg 46%
    06:00 +22°C° 0 mm 4 m/s 754 mmHg 46%
    07:00 +23°C° 0 mm 5 m/s 754 mmHg 46%
    08:00 +27°C° 0 mm 6 m/s 753 mmHg 39%
    09:00 +29°C° 0 mm 7 m/s 753 mmHg 32%
    10:00 +33°C° 0 mm 8 m/s 753 mmHg 26%
    11:00 +34°C° 0 mm 8 m/s 752 mmHg 24%
    12:00 +35°C° 0 mm 8 m/s 752 mmHg 23%
    13:00 +37°C° 0 mm 9 m/s 751 mmHg 22%
    14:00 +35°C° 0 mm 8 m/s 751 mmHg 24%
    15:00 +34°C° 0 mm 7 m/s 751 mmHg 26%
    16:00 +33°C° 0 mm 6 m/s 751 mmHg 29%
    17:00 +30°C° 0 mm 6 m/s 752 mmHg 29%
    18:00 +27°C° 0 mm 5 m/s 753 mmHg 29%
    19:00 +25°C° 0 mm 5 m/s 754 mmHg 29%
    20:00 +22°C° 0 mm 5 m/s 755 mmHg 31%
    21:00 +20°C° 0 mm 5 m/s 756 mmHg 33%
    22:00 +17°C° 0 mm 5 m/s 757 mmHg 35%
    23:00 +17°C° 0 mm 4 m/s 758 mmHg 40%

    27 Octombrie, Duminică

    Timp Temperatura Precipitaţii Vânt Presiune Umiditate
    00:00 +14°C° 0 mm 4 m/s 758 mmHg 44%
    01:00 +13°C° 0 mm 3 m/s 759 mmHg 48%
    02:00 +12°C° 0 mm 3 m/s 759 mmHg 49%
    03:00 +12°C° 0 mm 3 m/s 759 mmHg 50%
    04:00 +11°C° 0 mm 3 m/s 759 mmHg 51%
    05:00 +13°C° 0 mm 2 m/s 760 mmHg 48%
    06:00 +15°C° 0 mm 2 m/s 760 mmHg 45%
    07:00 +16°C° 0 mm 2 m/s 760 mmHg 42%
    08:00 +19°C° 0 mm 2 m/s 760 mmHg 37%
    09:00 +21°C° 0 mm 2 m/s 760 mmHg 32%
    10:00 +24°C° 0 mm 2 m/s 760 mmHg 27%
    11:00 +25°C° 0 mm 2 m/s 759 mmHg 27%
    12:00 +25°C° 0 mm 3 m/s 759 mmHg 27%
    13:00 +25°C° 0 mm 4 m/s 759 mmHg 28%
    14:00 +23°C° 0 mm 4 m/s 759 mmHg 32%
    15:00 +22°C° 0 mm 5 m/s 758 mmHg 37%
    16:00 +21°C° 0 mm 5 m/s 758 mmHg 41%
    17:00 +19°C° 0 mm 5 m/s 759 mmHg 48%
    18:00 +17°C° 0 mm 4 m/s 760 mmHg 54%
    19:00 +16°C° 0 mm 3 m/s 761 mmHg 61%
    20:00 +14°C° 0 mm 3 m/s 762 mmHg 65%
    21:00 +15°C° 0 mm 2 m/s 762 mmHg 69%
    22:00 +14°C° 0 mm 2 m/s 763 mmHg 72%
    23:00 +14°C° 0 mm 2 m/s 763 mmHg 74%

    28 Octombrie, Luni

    Timp Temperatura Precipitaţii Vânt Presiune Umiditate
    00:00 +14°C° 0 mm 1 m/s 763 mmHg 76%
    01:00 +13°C° 0 mm 1 m/s 763 mmHg 78%
    02:00 +13°C° 0 mm 1 m/s 763 mmHg 78%
    03:00 +13°C° 0 mm 1 m/s 763 mmHg 78%
    04:00 +13°C° 0 mm 1 m/s 763 mmHg 78%
    05:00 +14°C° 0 mm 2 m/s 763 mmHg 74%
    06:00 +15°C° 0 mm 2 m/s 764 mmHg 69%
    07:00 +17°C° 0 mm 2 m/s 764 mmHg 64%
    08:00 +19°C° 0 mm 2 m/s 764 mmHg 58%
    09:00 +21°C° 0 mm 3 m/s 764 mmHg 52%
    10:00 +24°C° 0 mm 3 m/s 765 mmHg 45%
    11:00 +22°C° 0.1 mm 4 m/s 765 mmHg 48%
    12:00 +22°C° 0.1 mm 4 m/s 765 mmHg 51%
    13:00 +22°C° 0.1 mm 5 m/s 765 mmHg 54%
    14:00 +21°C° 0 mm 5 m/s 765 mmHg 56%
    15:00 +20°C° 0 mm 6 m/s 765 mmHg 58%
    16:00 +20°C° 0 mm 6 m/s 765 mmHg 60%
    17:00 +17°C° 0 mm 5 m/s 766 mmHg 67%
    18:00 +16°C° 0 mm 5 m/s 767 mmHg 73%
    19:00 +15°C° 0 mm 4 m/s 768 mmHg 80%
    20:00 +15°C° 0.1 mm 4 m/s 768 mmHg 81%
    21:00 +15°C° 0.1 mm 4 m/s 768 mmHg 82%
    22:00 +16°C° 0.1 mm 3 m/s 768 mmHg 83%
    23:00 +14°C° 0 mm 3 m/s 768 mmHg 84%
    Arată mai mult